Location: Caracas
(10.5033°N, 66.8422°W)
Time: 20:33:51
(UTC-04:00)

Vanguard 1 Rocket - All Passes

Search period start: 22 June 2018 00:00
Search period end: 02 July 2018 00:00
Orbit: 653 x 4224 km, 34.3° (Epoch: 22 June)

Date Brightness Start Highest point End Pass type
(mag) Time Alt. Az. Time Alt. Az. Time Alt. Az.
22 Jun - 00:27:21 10° WNW 00:40:27 61° SW 01:04:03 10° SE visible
22 Jun - 02:59:11 10° WSW 03:14:35 25° SSW 03:33:54 10° SSE visible
22 Jun - 11:01:49 10° SSW 11:10:28 22° SSE 11:16:07 10° ESE daylight
22 Jun - 13:29:38 10° WSW 13:37:27 80° NW 13:42:15 10° NE daylight
22 Jun - 20:52:37 10° NNW 20:59:23 31° NE 21:10:57 10° E visible
22 Jun - 23:16:04 10° WNW 23:26:52 85° SW 23:48:27 10° SE visible
23 Jun - 01:44:04 10° W 01:58:38 36° SSW 02:20:24 10° SSE visible
23 Jun - 04:26:34 10° SW 04:36:39 13° SSW 04:47:06 10° S visible
23 Jun - 09:49:30 10° SSW 09:57:13 16° SSE 10:02:52 10° SE daylight
23 Jun - 12:16:29 10° SW 12:26:18 53° SSE 12:31:47 10° ENE daylight
23 Jun - 14:47:05 10° W 14:51:26 21° NW 14:54:56 10° NNE daylight
23 Jun - 19:43:38 10° N 19:47:34 15° NNE 19:52:48 10° ENE visible
23 Jun - 22:05:32 10° NW 22:14:19 66° NE 22:32:03 10° ESE visible
24 Jun - 00:31:06 10° WNW 00:43:46 49° SSW 01:05:59 10° SE visible
24 Jun - 03:05:17 10° WSW 03:18:51 20° SSW 03:35:13 10° SSE visible
24 Jun - 08:37:44 10° S 08:42:39 12° SSE 08:46:52 10° SSE daylight
24 Jun - 11:03:20 10° SSW 11:14:18 33° SSE 11:20:38 10° E daylight
24 Jun - 13:32:59 10° WSW 13:40:39 51° NW 13:45:26 10° NE daylight
24 Jun - 20:55:36 10° NNW 21:02:31 39° NE 21:15:04 10° E visible
24 Jun - 23:19:29 10° WNW 23:30:00 68° SW 23:50:49 10° SE visible
25 Jun - 01:48:53 10° W 02:02:27 28° SSW 02:21:51 10° SSE visible
25 Jun - 04:37:37 10° SSW 04:42:13 11° SSW 04:46:52 10° S visible
25 Jun - 09:50:09 10° SSW 10:01:20 23° SSE 10:08:28 10° ESE daylight
25 Jun - 12:19:07 10° SW 12:29:40 79° SE 12:35:20 10° ENE daylight
25 Jun - 14:51:49 10° WNW 14:54:46 14° NNW 14:57:19 10° N daylight
25 Jun - 19:46:21 10° NNW 19:51:00 20° NE 19:57:44 10° ENE visible
25 Jun - 22:08:45 10° NW 22:17:20 83° NE 22:35:03 10° SE visible
26 Jun - 00:35:12 10° W 00:47:19 38° SSW 01:07:40 10° SSE visible
26 Jun - 03:12:34 10° SW 03:23:36 15° SSW 03:36:16 10° S visible
26 Jun - 08:36:59 10° SSW 08:47:12 17° SSE 08:54:36 10° SE daylight
26 Jun - 11:05:18 10° SW 11:17:56 47° SSE 11:24:40 10° ENE daylight
26 Jun - 13:36:42 10° W 13:43:48 34° NW 13:48:25 10° NNE daylight
26 Jun - 20:58:39 10° NW 21:05:34 50° NE 21:18:49 10° ESE visible
26 Jun - 23:23:07 10° WNW 23:33:20 53° SSW 23:52:55 10° SE visible
27 Jun - 01:54:25 10° WSW 02:06:36 21° SSW 02:23:05 10° SSE visible
27 Jun - 07:24:05 10° S 07:31:32 12° SSE 07:37:47 10° SE daylight
27 Jun - 09:51:28 10° SSW 10:05:14 32° SSE 10:13:08 10° E daylight
27 Jun - 12:22:06 10° WSW 12:32:54 72° NW 12:38:39 10° NE daylight
27 Jun - 19:49:09 10° NNW 19:54:16 26° NE 20:02:18 10° E visible
27 Jun - 22:12:05 10° WNW 22:20:28 78° SW 22:37:43 10° SE visible
28 Jun - 00:39:44 10° W 00:51:06 30° SSW 01:09:07 10° SSE visible
28 Jun - 03:21:38 10° SSW 03:28:54 12° SSW 03:36:44 10° S visible
28 Jun - 08:37:40 10° SSW 08:51:26 23° SSE 09:00:22 10° ESE daylight
28 Jun - 11:07:36 10° SW 11:21:24 67° SSE 11:28:20 10° ENE daylight
28 Jun - 13:40:50 10° W 13:46:58 24° NW 13:51:14 10° NNE daylight
28 Jun - 18:41:10 10° NNE 18:42:51 11° NNE 18:44:44 10° NE daylight
28 Jun - 21:01:46 10° NW 21:08:37 67° NE 21:22:12 10° ESE visible
28 Jun - 23:27:02 10° W 23:36:53 41° SSW 23:54:44 10° SSE visible
29 Jun - 02:00:58 10° SW 02:11:09 16° SSW 02:23:58 10° SSE visible
29 Jun - 07:23:59 10° SSW 07:36:17 17° SSE 07:45:31 10° SE daylight
29 Jun - 09:53:10 10° SW 10:08:56 44° SSE 10:17:19 10° E daylight
29 Jun - 12:25:25 10° WSW 12:36:00 51° NW 12:41:49 10° NE daylight
29 Jun - 19:52:02 10° NNW 19:57:25 35° NE 20:06:27 10° E visible
29 Jun - 22:15:37 10° WNW 22:23:47 59° SSW 22:40:04 10° SE visible
30 Jun - 00:44:52 10° WSW 00:55:10 22° SSW 01:10:17 10° SSE visible
30 Jun - 06:10:46 10° S 06:19:27 13° SSE 06:27:03 10° SE daylight
30 Jun - 08:38:52 10° SSW 08:55:24 31° SSE 09:05:15 10° E daylight
30 Jun - 11:10:13 10° SW 11:24:39 89° SE 11:31:46 10° NE daylight
30 Jun - 13:45:25 10° WNW 13:50:14 17° NW 13:53:52 10° N daylight
30 Jun - 18:43:07 10° N 18:46:18 15° NNE 18:50:18 10° ENE daylight
30 Jun - 21:05:01 10° NW 21:11:44 89° NE 21:25:12 10° SE visible
30 Jun - 23:31:22 10° W 23:40:38 31° SSW 23:56:16 10° SSE visible
01 Jul - 02:09:13 10° SW 02:16:09 12° SSW 02:24:07 10° S visible
01 Jul - 07:24:48 10° SSW 07:40:40 23° SSE 07:51:36 10° ESE daylight
01 Jul - 09:55:11 10° SW 10:12:26 59° SSE 10:21:05 10° ENE daylight
01 Jul - 12:29:07 10° WSW 12:39:05 37° NW 12:44:49 10° NNE daylight
01 Jul - 19:55:01 10° NW 20:00:31 48° NE 20:10:13 10° ESE visible
01 Jul - 22:19:25 10° W 22:27:18 43° SSW 22:42:07 10° SE visible
